Regional Weather Roundup
Issued by NWS Cleveland, OH

Home | Current Version | Previous Version | Text Only | Print | Product List | Glossary On
Versions: 1 2 3 4 5 6 7 8 9 10 11 12 13 14 15 16 17 18 19 20 21 22 23 24 25 26 27 28 29 30 31 32 33 34 35 36 37 38 39 40 41 42 43 44 45 46 47 48 49 50
000
ASUS41 KCLE 031112
RWRCLE
OHIO REGIONAL WEATHER ROUNDUP
NATIONAL WEATHER SERVICE WILMINGTON, OH
700 AM EDT TUE AUG 03 2021

NOTE: "FAIR" INDICATES FEW OR NO CLOUDS BELOW 12,000 FEET WITH NO
SIGNIFICANT WEATHER AND/OR OBSTRUCTIONS TO VISIBILITY.

OHZ001>008-015>018-024>027-034-035-043-044-031200-
   NORTHWEST OHIO

CITY           SKY/WX    TMP DP  RH WIND       PRES   REMARKS
DEFIANCE       FAIR      55  52  89 CALM      30.12S
FINDLAY        FAIR      55  52  89 CALM      30.11S
TOLEDO EXPRESS FAIR      55  52  89 CALM      30.11S
TOLEDO EXEC    FAIR      58  52  80 CALM      30.12S
LIMA           FAIR      56  51  84 CALM      30.12R
$$

OHZ009>014-019>023-028>033-038-089-031200-
   NORTHEAST OHIO

CITY           SKY/WX    TMP DP  RH WIND       PRES   REMARKS
CLE-HOPKINS    FAIR      56  50  80 S3        30.10S
CLE-LAKEFRONT  FAIR      62  51  67 S9        30.10S
CUY CO. ARPT   PTCLDY    55  50  82 CALM      30.12F
LORAIN-ELYRIA  FAIR      53  51  93 CALM      30.13S
ASHTABULA      FAIR      53  51  93 CALM      30.14S
AKRON-CANTON   FAIR      58  51  78 E3        30.13S
WOOSTER        FAIR      51  49  92 CALM      30.13S
MANSFIELD      FAIR      56  51  84 SE3       30.13S
YOUNGSTOWN     FAIR      51  49  92 SE6       30.13S
$$

OHZ042-051>053-060>062-070>072-077>081-031200-
  SOUTHWEST OHIO

CITY           SKY/WX    TMP DP  RH WIND       PRES   REMARKS
CINC-COVINGTON FAIR      61  54  77 CALM      30.08R
CINC-LUNKEN    FAIR      56  55  97 CALM      30.09S
HAMILTON       FAIR      55  55 100 CALM      30.10R
DAYTON         FAIR      58  50  75 CALM      30.12R
WRIGHT-PAT AFB CLEAR     57  52  82 CALM      30.10S
DAYTON GENERAL NOT AVBL
WILMINGTON     FAIR      55  52  89 NE5       30.10R
$$

OHZ036-037-039>041-045>050-054>059-063>069-073>076-082>088-031200-
  CENTRAL AND SOUTHEAST OHIO

CITY           SKY/WX    TMP DP  RH WIND       PRES   REMARKS
COLUMBUS       FAIR      59  53  80 CALM      30.10R
OSU AIRPORT    FAIR      59  53  80 CALM      30.11R
BOLTON FIELD   FAIR      53  52  97 CALM      30.11R
RICKENBACK AFB FAIR      56  53  88 NE3       30.10R
NEWARK         FAIR      54  51  90 CALM      30.11R FOG
MARION         NOT AVBL
LANCASTER      FAIR      53  52  96 CALM      30.11R
ZANESVILLE     FAIR      55  53  93 CALM      30.11R
NEW PHILLY     FAIR      54  52  93 CALM      30.13R
$$



USA.gov is the U.S. government's official web portal to all federal, state and local government web resources and services.